Tracking 18980 objects as of 20-Feb-2018
HD Live streaming from Space Station
objects crossing your sky now

COSMOS 1925

Track COSMOS 1925 now!
10-day predictions
COSMOS 1925 is classified as:


NORAD ID: 18938
Int'l Code: 1988-016B
Perigee: 1,466.2 km
Apogee: 1,503.9 km
Inclination: 74.0 °
Period: 115.5 minutes
Semi major axis: 7856 km
RCS: 0.7088 m2 (medium)
Launch date: March 11, 1988
Source: Commonwealth of Independent States (former USSR) (CIS)
Launch site: PLESETSK MISSILE AND SPACE COMPLEX (PKMTR)
aabbcc
Your satellite tracking list
Your tracking list is empty




NASA's NSSDC Master Catalog

Two Line Element Set (TLE):
1 18938U 88016B   18051.50347295 -.00000009  00000-0  44016-4 0  9991
2 18938  74.0044 112.3902 0024030 180.6193 283.3137 12.46803751363270
Source of the keplerian elements: AFSPC